| time (UTC) | temp F | wind direction | speed MPH | gust MPH | rain 1hr in | rain 24hr in | rain mn in | humidity % | barometer mb |
| 20260904213113 | 102 | 122 | 3.0 | 5.0 | 0.00 | 0.00 | 0.00 | 35 | 1012.9 |
| 20260904212608 | 102 | 195 | 2.0 | 2.0 | 0.00 | 0.00 | 0.00 | 33 | 1012.9 |
| 20260904212103 | 101 | 143 | 1.0 | 2.0 | 0.00 | 0.00 | 0.00 | 36 | 1013.1 |
| 20260904211603 | 101 | 101 | 3.0 | 3.0 | 0.00 | 0.00 | 0.00 | 41 | 1013.1 |
| 20260904211058 | 102 | 120 | 1.0 | 1.0 | 0.00 | 0.00 | 0.00 | 34 | 1013.1 |
| 20260904210557 | 102 | 218 | 1.0 | 2.0 | 0.00 | 0.00 | 0.00 | 33 | 1013.4 |
| 20260904210054 | 102 | 133 | 1.0 | 2.0 | 0.00 | 0.00 | 0.00 | 34 | 1013.4 |
| 20260904205549 | 102 | 151 | 3.0 | 3.0 | 0.00 | 0.00 | 0.00 | 35 | 1013.4 |
| 20260904205045 | 103 | 115 | 5.0 | 6.0 | 0.00 | 0.00 | 0.00 | 35 | 1013.7 |
| 20260904204541 | 102 | 151 | 1.0 | 2.0 | 0.00 | 0.00 | 0.00 | 34 | 1013.5 |
| 20260904204037 | 102 | 196 | 1.0 | 1.0 | 0.00 | 0.00 | 0.00 | 34 | 1013.6 |
| 20260904203532 | 101 | 129 | 2.0 | 3.0 | 0.00 | 0.00 | 0.00 | 35 | 1013.7 |
| 20260904203029 | 103 | 113 | 2.0 | 2.0 | 0.00 | 0.00 | 0.00 | 37 | 1013.7 |
| 20260904202525 | 103 | 154 | 2.0 | 2.0 | 0.00 | 0.00 | 0.00 | 33 | 1013.6 |
| 20260904202021 | 103 | 207 | 2.0 | 2.0 | 0.00 | 0.00 | 0.00 | 34 | 1013.7 |
| 20260904201516 | 103 | 194 | 1.0 | 1.0 | 0.00 | 0.00 | 0.00 | 34 | 1013.8 |
| 20260904201011 | 104 | 232 | 4.0 | 5.0 | 0.00 | 0.00 | 0.00 | 33 | 1013.6 |
| 20260904200509 | 103 | 181 | 1.0 | 1.0 | 0.00 | 0.00 | 0.00 | 34 | 1013.9 |
| 20260904200005 | 102 | 124 | 1.0 | 2.0 | 0.00 | 0.00 | 0.00 | 34 | 1014.0 |
| 20260904195503 | 102 | 161 | 3.0 | 3.0 | 0.00 | 0.00 | 0.00 | 34 | 1014.1 |
| 20260904195002 | 103 | 206 | 3.0 | 3.0 | 0.00 | 0.00 | 0.00 | 34 | 1014.2 |
| 20260904194457 | 102 | 205 | 1.0 | 2.0 | 0.00 | 0.00 | 0.00 | 34 | 1014.1 |
| 20260904193952 | 103 | 157 | 7.0 | 9.0 | 0.00 | 0.00 | 0.00 | 36 | 1014.4 |
| 20260904193447 | 102 | 126 | 2.0 | 2.0 | 0.00 | 0.00 | 0.00 | 34 | 1014.3 |
| 20260904192942 | 103 | 192 | 3.0 | 3.0 | 0.00 | 0.00 | 0.00 | 33 | 1014.3 |
| 20260904192437 | 103 | 166 | 1.0 | 2.0 | 0.00 | 0.00 | 0.00 | 34 | 1014.3 |
| 20260904191934 | 101 | 157 | 3.0 | 3.0 | 0.00 | 0.00 | 0.00 | 35 | 1014.4 |
| 20260904191430 | 103 | 71 | 3.0 | 3.0 | 0.00 | 0.00 | 0.00 | 35 | 1014.3 |
| 20260904190926 | 102 | 112 | 2.0 | 2.0 | 0.00 | 0.00 | 0.00 | 36 | 1014.5 |
| 20260904190426 | 102 | 121 | 2.0 | 3.0 | 0.00 | 0.00 | 0.00 | 37 | 1014.5 |
| 20260904185923 | 102 | 115 | 3.0 | 5.0 | 0.00 | 0.00 | 0.00 | 38 | 1014.7 |
| 20260904185418 | 102 | 152 | 5.0 | 5.0 | 0.00 | 0.00 | 0.00 | 37 | 1014.7 |
| 20260904184913 | 101 | 185 | 2.0 | 2.0 | 0.00 | 0.00 | 0.00 | 37 | 1014.8 |
| 20260904184408 | 101 | 215 | 3.0 | 3.0 | 0.00 | 0.00 | 0.00 | 39 | 1015.0 |
| 20260904183903 | 101 | 78 | 2.0 | 2.0 | 0.00 | 0.00 | 0.00 | 37 | 1014.9 |
| 20260904183358 | 101 | 161 | 0.0 | 1.0 | 0.00 | 0.00 | 0.00 | 38 | 1014.9 |
| 20260904182854 | 100 | 139 | 3.0 | 3.0 | 0.00 | 0.00 | 0.00 | 40 | 1015.1 |
| 20260904182348 | 100 | 152 | 4.0 | 5.0 | 0.00 | 0.00 | 0.00 | 40 | 1015.0 |
| 20260904181843 | 100 | 202 | 4.0 | 5.0 | 0.00 | 0.00 | 0.00 | 40 | 1015.0 |
| 20260904181338 | 100 | 296 | 3.0 | 5.0 | 0.00 | 0.00 | 0.00 | 38 | 1015.2 |
| 20260904180834 | 99 | 170 | 5.0 | 5.0 | 0.00 | 0.00 | 0.00 | 40 | 1015.2 |
| 20260904180329 | 100 | 127 | 5.0 | 5.0 | 0.00 | 0.00 | 0.00 | 41 | 1015.5 |
| 20260904175828 | 99 | 82 | 4.0 | 5.0 | 0.00 | 0.00 | 0.00 | 42 | 1015.1 |
| 20260904175326 | 99 | 187 | 3.0 | 3.0 | 0.00 | 0.00 | 0.00 | 43 | 1015.5 |
| 20260904174821 | 99 | 134 | 3.0 | 5.0 | 0.00 | 0.00 | 0.00 | 40 | 1015.8 |
| 20260904174317 | 99 | 202 | 0.0 | 1.0 | 0.00 | 0.00 | 0.00 | 41 | 1015.8 |
| 20260904173813 | 98 | 177 | 2.0 | 2.0 | 0.00 | 0.00 | 0.00 | 42 | 1015.7 |
| 20260904173308 | 98 | 150 | 5.0 | 6.0 | 0.00 | 0.00 | 0.00 | 42 | 1015.7 |
| 20260904172804 | 98 | 133 | 1.0 | 2.0 | 0.00 | 0.00 | 0.00 | 41 | 1015.9 |
| 20260904172305 | 98 | 148 | 4.0 | 5.0 | 0.00 | 0.00 | 0.00 | 42 | 1015.8 |
| 20260904171758 | 98 | 166 | 5.0 | 6.0 | 0.00 | 0.00 | 0.00 | 42 | 1015.9 |
| 20260904171253 | 97 | 109 | 3.0 | 5.0 | 0.00 | 0.00 | 0.00 | 44 | 1016.0 |
| 20260904170750 | 97 | 158 | 5.0 | 6.0 | 0.00 | 0.00 | 0.00 | 44 | 1015.9 |
| 20260904170246 | 97 | 149 | 1.0 | 2.0 | 0.00 | 0.00 | 0.00 | 44 | 1015.9 |
| 20260904165744 | 97 | 186 | 3.0 | 3.0 | 0.00 | 0.00 | 0.00 | 45 | 1015.9 |
| 20260904165239 | 97 | 200 | 5.0 | 6.0 | 0.00 | 0.00 | 0.00 | 47 | 1015.9 |
| 20260904164738 | 96 | 189 | 4.0 | 5.0 | 0.00 | 0.00 | 0.00 | 47 | 1016.1 |
| 20260904164234 | 97 | 147 | 6.0 | 7.0 | 0.00 | 0.00 | 0.00 | 47 | 1015.9 |
| 20260904163730 | 97 | 165 | 4.0 | 6.0 | 0.00 | 0.00 | 0.00 | 46 | 1016.2 |
| 20260904163225 | 96 | 189 | 0.0 | 1.0 | 0.00 | 0.00 | 0.00 | 47 | 1016.2 |
| 20260904162724 | 96 | 69 | 0.0 | 0.0 | 0.00 | 0.00 | 0.00 | 46 | 1016.6 |
| 20260904162219 | 95 | 158 | 7.0 | 7.0 | 0.00 | 0.00 | 0.00 | 47 | 1016.3 |
| 20260904161714 | 96 | 195 | 6.0 | 7.0 | 0.00 | 0.00 | 0.00 | 48 | 1016.1 |
| 20260904161204 | 95 | 119 | 4.0 | 5.0 | 0.00 | 0.00 | 0.00 | 50 | 1016.2 |
| 20260904160700 | 94 | 153 | 7.0 | 9.0 | 0.00 | 0.00 | 0.00 | 51 | 1016.0 |
| 20260904160155 | 95 | 143 | 4.0 | 5.0 | 0.00 | 0.00 | 0.00 | 49 | 1016.2 |
| 20260904155649 | 95 | 162 | 3.0 | 3.0 | 0.00 | 0.00 | 0.00 | 50 | 1016.2 |
| 20260904155148 | 95 | 151 | 3.0 | 5.0 | 0.00 | 0.00 | 0.00 | 51 | 1016.5 |
| 20260904154648 | 95 | 150 | 1.0 | 2.0 | 0.00 | 0.00 | 0.00 | 52 | 1016.4 |
| 20260904154147 | 94 | 89 | 0.0 | 1.0 | 0.00 | 0.00 | 0.00 | 52 | 1016.3 |
| 20260904153643 | 93 | 147 | 2.0 | 2.0 | 0.00 | 0.00 | 0.00 | 52 | 1016.3 |
| 20260904153138 | 93 | 158 | 2.0 | 2.0 | 0.00 | 0.00 | 0.00 | 54 | 1016.4 |
| 20260904152635 | 93 | 110 | 1.0 | 2.0 | 0.00 | 0.00 | 0.00 | 54 | 1016.5 |
| 20260904152130 | 92 | 194 | 1.0 | 1.0 | 0.00 | 0.00 | 0.00 | 55 | 1016.4 |
| 20260904151625 | 92 | 351 | 1.0 | 1.0 | 0.00 | 0.00 | 0.00 | 55 | 1016.4 |
| 20260904151123 | 92 | 180 | 2.0 | 2.0 | 0.00 | 0.00 | 0.00 | 55 | 1016.5 |
| 20260904150619 | 92 | 85 | 0.0 | 1.0 | 0.00 | 0.00 | 0.00 | 55 | 1016.5 |
| 20260904150114 | 91 | 153 | 1.0 | 1.0 | 0.00 | 0.00 | 0.00 | 57 | 1016.1 |
| 20260904145613 | 91 | 154 | 1.0 | 2.0 | 0.00 | 0.00 | 0.00 | 57 | 1016.3 |
| 20260904145108 | 92 | 234 | 2.0 | 2.0 | 0.00 | 0.00 | 0.00 | 56 | 1016.4 |
| 20260904144604 | 91 | 92 | 0.0 | 0.0 | 0.00 | 0.00 | 0.00 | 58 | 1016.3 |
| 20260904144059 | 90 | 111 | 0.0 | 0.0 | 0.00 | 0.00 | 0.00 | 59 | 1016.3 |
| 20260904143555 | 88 | 78 | 0.0 | 1.0 | 0.00 | 0.00 | 0.00 | 62 | 1016.5 |
| 20260904143052 | 88 | 158 | 1.0 | 1.0 | 0.00 | 0.00 | 0.00 | 63 | 1016.3 |
| 20260904142548 | 89 | 144 | 0.0 | 0.0 | 0.00 | 0.00 | 0.00 | 68 | 1016.6 |
| 20260904142043 | 88 | 179 | 0.0 | 0.0 | 0.00 | 0.00 | 0.00 | 62 | 1016.5 |
| 20260904141538 | 88 | 182 | 0.0 | 0.0 | 0.00 | 0.00 | 0.00 | 68 | 1016.3 |
| 20260904141033 | 87 | 189 | 0.0 | 0.0 | 0.00 | 0.00 | 0.00 | 63 | 1016.4 |
| 20260904140534 | 87 | 174 | 0.0 | 0.0 | 0.00 | 0.00 | 0.00 | 65 | 1016.4 |
| 20260904140028 | 87 | 239 | 0.0 | 0.0 | 0.00 | 0.00 | 0.00 | 64 | 1016.6 |
| 20260904135527 | 86 | 221 | 0.0 | 0.0 | 0.00 | 0.00 | 0.00 | 66 | 1016.6 |
| 20260904135024 | 87 | 90 | 0.0 | 0.0 | 0.00 | 0.00 | 0.00 | 65 | 1016.3 |
| 20260904134519 | 86 | 158 | 0.0 | 0.0 | 0.00 | 0.00 | 0.00 | 69 | 1016.4 |
| 20260904134013 | 85 | 158 | 0.0 | 0.0 | 0.00 | 0.00 | 0.00 | 70 | 1016.4 |
| 20260904133508 | 83 | 204 | 0.0 | 0.0 | 0.00 | 0.00 | 0.00 | 71 | 1016.5 |
| 20260904133004 | 81 | 171 | 0.0 | 0.0 | 0.00 | 0.00 | 0.00 | 75 | 1016.4 |
| 20260904132503 | 80 | 174 | 0.0 | 0.0 | 0.00 | 0.00 | 0.00 | 79 | 1016.4 |
| 20260904131958 | 79 | 160 | 0.0 | 0.0 | 0.00 | 0.00 | 0.00 | 79 | 1016.4 |
| 20260904131453 | 78 | 170 | 0.0 | 0.0 | 0.00 | 0.00 | 0.00 | 80 | 1016.7 |
| 20260904130949 | 78 | 260 | 0.0 | 0.0 | 0.00 | 0.00 | 0.00 | 82 | 1016.4 |
| 20260904130448 | 78 | 199 | 0.0 | 0.0 | 0.00 | 0.00 | 0.00 | 82 | 1016.4 |
| 20260904125943 | 77 | 205 | 0.0 | 0.0 | 0.00 | 0.00 | 0.00 | 83 | 1016.3 |
| 20260904125439 | 77 | 223 | 0.0 | 0.0 | 0.00 | 0.00 | 0.00 | 83 | 1016.5 |
| 20260904124938 | 77 | 171 | 0.0 | 0.0 | 0.00 | 0.00 | 0.00 | 83 | 1016.6 |
| 20260904124434 | 77 | 238 | 0.0 | 0.0 | 0.00 | 0.00 | 0.00 | 83 | 1016.3 |
| 20260904123930 | 76 | 214 | 0.0 | 0.0 | 0.00 | 0.00 | 0.00 | 84 | 1016.2 |
| 20260904123425 | 76 | 358 | 0.0 | 1.0 | 0.00 | 0.00 | 0.00 | 85 | 1016.3 |
| 20260904122920 | 75 | 351 | 1.0 | 1.0 | 0.00 | 0.00 | 0.00 | 87 | 1016.1 |
| 20260904122420 | 75 | 346 | 0.0 | 0.0 | 0.00 | 0.00 | 0.00 | 87 | 1016.3 |
| 20260904121914 | 75 | 248 | 0.0 | 0.0 | 0.00 | 0.00 | 0.00 | 87 | 1015.8 |
| 20260904121411 | 75 | 70 | 0.0 | 0.0 | 0.00 | 0.00 | 0.00 | 88 | 1016.0 |
| 20260904120907 | 74 | 153 | 0.0 | 0.0 | 0.00 | 0.00 | 0.00 | 88 | 1015.8 |
| 20260904120403 | 74 | 223 | 0.0 | 0.0 | 0.00 | 0.00 | 0.00 | 88 | 1015.8 |
| 20260904115858 | 75 | 289 | 0.0 | 0.0 | 0.00 | 0.00 | 0.00 | 88 | 1016.0 |
| 20260904115352 | 75 | 290 | 0.0 | 0.0 | 0.00 | 0.00 | 0.00 | 86 | 1015.8 |
| 20260904114846 | 75 | 325 | 0.0 | 0.0 | 0.00 | 0.00 | 0.00 | 86 | 1015.8 |
| 20260904114336 | 75 | 261 | 0.0 | 0.0 | 0.00 | 0.00 | 0.00 | 87 | 1015.9 |
| 20260904113831 | 76 | 102 | 0.0 | 0.0 | 0.00 | 0.00 | 0.00 | 87 | 1015.7 |
| 20260904113330 | 76 | 44 | 0.0 | 0.0 | 0.00 | 0.00 | 0.00 | 87 | 1015.6 |
| 20260904112825 | 75 | 334 | 0.0 | 0.0 | 0.00 | 0.00 | 0.00 | 86 | 1015.5 |
| 20260904112321 | 75 | 239 | 0.0 | 0.0 | 0.00 | 0.00 | 0.00 | 86 | 1015.3 |
| 20260904111816 | 75 | 249 | 0.0 | 0.0 | 0.00 | 0.00 | 0.00 | 86 | 1015.5 |
| 20260904111312 | 75 | 208 | 0.0 | 0.0 | 0.00 | 0.00 | 0.00 | 85 | 1015.3 |
| 20260904110808 | 75 | 326 | 0.0 | 0.0 | 0.00 | 0.00 | 0.00 | 85 | 1015.0 |
| 20260904110306 | 75 | 229 | 0.0 | 0.0 | 0.00 | 0.00 | 0.00 | 85 | 1015.5 |
| 20260904105801 | 75 | 330 | 0.0 | 0.0 | 0.00 | 0.00 | 0.00 | 86 | 1015.2 |
| 20260904105255 | 75 | 0 | 0.0 | 0.0 | 0.00 | 0.00 | 0.00 | 86 | 1015.5 |
| 20260904104751 | 76 | 293 | 0.0 | 0.0 | 0.00 | 0.00 | 0.00 | 86 | 1015.6 |
| 20260904104247 | 76 | 130 | 0.0 | 0.0 | 0.00 | 0.00 | 0.00 | 86 | 1015.2 |
| 20260904103744 | 76 | 120 | 0.0 | 0.0 | 0.00 | 0.00 | 0.00 | 85 | 1015.2 |
| 20260904103238 | 76 | 114 | 0.0 | 0.0 | 0.00 | 0.00 | 0.00 | 85 | 1015.3 |
| 20260904102734 | 76 | 275 | 0.0 | 0.0 | 0.00 | 0.00 | 0.00 | 86 | 1015.2 |
| 20260904102229 | 76 | 213 | 0.0 | 0.0 | 0.00 | 0.00 | 0.00 | 85 | 1015.1 |
| 20260904101726 | 76 | 215 | 0.0 | 0.0 | 0.00 | 0.00 | 0.00 | 85 | 1015.3 |
| 20260904101221 | 76 | 261 | 0.0 | 0.0 | 0.00 | 0.00 | 0.00 | 84 | 1015.0 |
| 20260904100717 | 77 | 168 | 0.0 | 0.0 | 0.00 | 0.00 | 0.00 | 83 | 1015.0 |
| 20260904100213 | 77 | 224 | 0.0 | 0.0 | 0.00 | 0.00 | 0.00 | 83 | 1014.8 |
| 20260904095712 | 77 | 131 | 0.0 | 0.0 | 0.00 | 0.00 | 0.00 | 84 | 1014.9 |
| 20260904095206 | 77 | 136 | 0.0 | 0.0 | 0.00 | 0.00 | 0.00 | 83 | 1014.8 |
| 20260904094701 | 77 | 214 | 0.0 | 0.0 | 0.00 | 0.00 | 0.00 | 82 | 1014.6 |
| 20260904094156 | 77 | 191 | 0.0 | 0.0 | 0.00 | 0.00 | 0.00 | 80 | 1014.7 |
| 20260904093654 | 77 | 213 | 0.0 | 0.0 | 0.00 | 0.00 | 0.00 | 79 | 1014.7 |
| 20260904093153 | 77 | 320 | 0.0 | 0.0 | 0.00 | 0.00 | 0.00 | 79 | 1014.6 |
| 20260904092649 | 77 | 293 | 1.0 | 1.0 | 0.00 | 0.00 | 0.00 | 78 | 1014.5 |
| 20260904092145 | 78 | 285 | 0.0 | 1.0 | 0.00 | 0.00 | 0.00 | 78 | 1014.4 |
| 20260904091641 | 78 | 208 | 0.0 | 0.0 | 0.00 | 0.00 | 0.00 | 78 | 1014.3 |
| 20260904091141 | 78 | 213 | 0.0 | 0.0 | 0.00 | 0.00 | 0.00 | 77 | 1014.4 |
| 20260904090636 | 79 | 58 | 0.0 | 0.0 | 0.00 | 0.00 | 0.00 | 76 | 1014.5 |
| 20260904090132 | 79 | 354 | 1.0 | 1.0 | 0.00 | 0.00 | 0.00 | 76 | 1014.2 |
| 20260904085631 | 79 | 321 | 1.0 | 1.0 | 0.00 | 0.00 | 0.00 | 75 | 1014.3 |
| 20260904085126 | 79 | 105 | 0.0 | 0.0 | 0.00 | 0.00 | 0.00 | 75 | 1014.4 |
| 20260904084622 | 79 | 184 | 0.0 | 0.0 | 0.00 | 0.00 | 0.00 | 75 | 1014.2 |
| 20260904084118 | 79 | 174 | 0.0 | 0.0 | 0.00 | 0.00 | 0.00 | 75 | 1014.3 |
| 20260904083614 | 79 | 138 | 0.0 | 0.0 | 0.00 | 0.00 | 0.00 | 75 | 1014.0 |
| 20260904083109 | 78 | 314 | 2.0 | 2.0 | 0.00 | 0.00 | 0.00 | 76 | 1014.3 |
| 20260904082604 | 78 | 264 | 1.0 | 1.0 | 0.00 | 0.00 | 0.00 | 75 | 1014.3 |
| 20260904082100 | 79 | 281 | 0.0 | 0.0 | 0.00 | 0.00 | 0.00 | 75 | 1014.2 |
| 20260904081555 | 79 | 88 | 0.0 | 0.0 | 0.00 | 0.00 | 0.00 | 75 | 1014.0 |
| 20260904081050 | 80 | 303 | 0.0 | 0.0 | 0.00 | 0.00 | 0.00 | 74 | 1014.0 |
| 20260904080546 | 80 | 356 | 0.0 | 0.0 | 0.00 | 0.00 | 0.00 | 74 | 1013.9 |
| 20260904080042 | 80 | 8 | 0.0 | 0.0 | 0.00 | 0.00 | 0.00 | 74 | 1013.8 |
| 20260904075538 | 80 | 350 | 0.0 | 0.0 | 0.00 | 0.00 | 0.00 | 73 | 1014.0 |
| 20260904075032 | 80 | 53 | 0.0 | 0.0 | 0.00 | 0.00 | 0.00 | 72 | 1014.1 |
| 20260904074531 | 80 | 352 | 0.0 | 0.0 | 0.00 | 0.00 | 0.00 | 72 | 1014.0 |
| 20260904074026 | 81 | 333 | 1.0 | 1.0 | 0.00 | 0.00 | 0.00 | 71 | 1014.1 |
| 20260904073521 | 81 | 332 | 1.0 | 1.0 | 0.00 | 0.00 | 0.00 | 70 | 1013.8 |
| 20260904073018 | 81 | 80 | 0.0 | 0.0 | 0.00 | 0.00 | 0.00 | 70 | 1013.8 |
| 20260904072513 | 81 | 43 | 0.0 | 0.0 | 0.00 | 0.00 | 0.00 | 70 | 1013.9 |
| 20260904072008 | 81 | 286 | 1.0 | 1.0 | 0.00 | 0.00 | 0.00 | 70 | 1013.8 |
| 20260904071503 | 81 | 338 | 1.0 | 1.0 | 0.00 | 0.00 | 0.00 | 70 | 1013.9 |
| 20260904070958 | 81 | 345 | 1.0 | 1.0 | 0.00 | 0.00 | 0.00 | 70 | 1013.8 |
| 20260904070456 | 82 | 319 | 1.0 | 1.0 | 0.00 | 0.00 | 0.00 | 69 | 1013.9 |
| 20260904065951 | 82 | 332 | 1.0 | 1.0 | 0.00 | 0.00 | 0.00 | 68 | 1013.8 |
| 20260904065447 | 83 | 45 | 0.0 | 0.0 | 0.00 | 0.00 | 0.00 | 67 | 1013.9 |
| 20260904064942 | 84 | 13 | 1.0 | 1.0 | 0.00 | 0.00 | 0.00 | 65 | 1013.9 |
| 20260904064439 | 84 | 69 | 2.0 | 2.0 | 0.00 | 0.00 | 0.00 | 64 | 1014.1 |
| 20260904063933 | 84 | 115 | 2.0 | 2.0 | 0.00 | 0.00 | 0.00 | 65 | 1013.9 |
| 20260904063430 | 84 | 75 | 2.0 | 2.0 | 0.00 | 0.00 | 0.00 | 65 | 1013.7 |
| 20260904062924 | 84 | 103 | 2.0 | 3.0 | 0.00 | 0.00 | 0.00 | 65 | 1013.9 |
| 20260904062421 | 84 | 109 | 2.0 | 2.0 | 0.00 | 0.00 | 0.00 | 65 | 1013.9 |
| 20260904061916 | 84 | 141 | 1.0 | 2.0 | 0.00 | 0.00 | 0.00 | 65 | 1014.0 |
| 20260904061412 | 84 | 121 | 2.0 | 2.0 | 0.00 | 0.00 | 0.00 | 68 | 1013.8 |
| 20260904060908 | 83 | 155 | 0.0 | 0.0 | 0.00 | 0.00 | 0.00 | 68 | 1014.1 |
| 20260904060404 | 83 | 164 | 0.0 | 0.0 | 0.00 | 0.00 | 0.00 | 67 | 1013.9 |
| 20260904055859 | 84 | 173 | 0.0 | 0.0 | 0.00 | 0.00 | 0.00 | 66 | 1013.7 |
| 20260904055354 | 84 | 128 | 0.0 | 0.0 | 0.00 | 0.00 | 0.00 | 64 | 1013.9 |
| 20260904054850 | 85 | 161 | 0.0 | 0.0 | 0.00 | 0.00 | 0.00 | 64 | 1013.9 |
| 20260904054345 | 85 | 108 | 1.0 | 2.0 | 0.00 | 0.00 | 0.00 | 64 | 1013.6 |
| 20260904053841 | 85 | 157 | 1.0 | 1.0 | 0.00 | 0.00 | 0.00 | 63 | 1013.9 |
| 20260904053340 | 85 | 135 | 1.0 | 2.0 | 0.00 | 0.00 | 0.00 | 62 | 1013.7 |
| 20260904052836 | 86 | 124 | 2.0 | 2.0 | 0.00 | 0.00 | 0.00 | 63 | 1013.7 |
| 20260904052333 | 86 | 144 | 2.0 | 2.0 | 0.00 | 0.00 | 0.00 | 61 | 1013.4 |
| 20260904051829 | 86 | 112 | 2.0 | 2.0 | 0.00 | 0.00 | 0.00 | 62 | 1013.8 |
| 20260904051324 | 86 | 135 | 0.0 | 1.0 | 0.00 | 0.00 | 0.00 | 60 | 1013.8 |
| 20260904050819 | 86 | 90 | 2.0 | 3.0 | 0.00 | 0.00 | 0.00 | 61 | 1013.5 |
| 20260904050316 | 86 | 127 | 3.0 | 3.0 | 0.00 | 0.00 | 0.00 | 59 | 1013.4 |
| 20260904045816 | 85 | 126 | 3.0 | 3.0 | 0.00 | 0.00 | 0.00 | 62 | 1013.5 |
| 20260904045311 | 85 | 95 | 2.0 | 2.0 | 0.00 | 0.00 | 0.00 | 64 | 1013.6 |
| 20260904044800 | 83 | 145 | 2.0 | 3.0 | 0.00 | 0.00 | 0.00 | 63 | 1013.6 |
| 20260904044257 | 83 | 76 | 0.0 | 0.0 | 0.00 | 0.00 | 0.00 | 67 | 1013.7 |
| 20260904043752 | 83 | 357 | 0.0 | 0.0 | 0.00 | 0.00 | 0.00 | 68 | 1013.4 |
| 20260904043249 | 83 | 221 | 0.0 | 0.0 | 0.00 | 0.00 | 0.00 | 67 | 1013.6 |
| 20260904042744 | 83 | 120 | 0.0 | 0.0 | 0.00 | 0.00 | 0.00 | 68 | 1013.5 |
| 20260904042240 | 83 | 129 | 0.0 | 0.0 | 0.00 | 0.00 | 0.00 | 68 | 1013.6 |
| 20260904041739 | 83 | 163 | 0.0 | 0.0 | 0.00 | 0.00 | 0.00 | 68 | 1013.8 |
| 20260904041236 | 83 | 172 | 0.0 | 0.0 | 0.00 | 0.00 | 0.00 | 67 | 1013.8 |
| 20260904040731 | 83 | 280 | 0.0 | 0.0 | 0.00 | 0.00 | 0.00 | 67 | 1013.6 |
| 20260904040227 | 83 | 3 | 0.0 | 0.0 | 0.00 | 0.00 | 0.00 | 67 | 1013.7 |
| 20260904035723 | 83 | 349 | 0.0 | 0.0 | 0.00 | 0.00 | 0.00 | 66 | 1013.6 |
| 20260904035218 | 82 | 352 | 0.0 | 0.0 | 0.00 | 0.00 | 0.00 | 67 | 1013.8 |
| 20260904034717 | 82 | 176 | 0.0 | 0.0 | 0.00 | 0.00 | 0.00 | 68 | 1013.8 |
| 20260904034213 | 82 | 304 | 0.0 | 0.0 | 0.00 | 0.00 | 0.00 | 68 | 1013.5 |
| 20260904033709 | 82 | 347 | 0.0 | 0.0 | 0.00 | 0.00 | 0.00 | 69 | 1013.8 |
| 20260904033205 | 82 | 336 | 0.0 | 0.0 | 0.00 | 0.00 | 0.00 | 71 | 1013.7 |
| 20260904032701 | 82 | 82 | 0.0 | 0.0 | 0.00 | 0.00 | 0.00 | 73 | 1013.6 |
| 20260904032159 | 82 | 75 | 0.0 | 0.0 | 0.00 | 0.00 | 0.00 | 76 | 1013.7 |
| 20260904031654 | 81 | 39 | 0.0 | 0.0 | 0.00 | 0.00 | 0.00 | 76 | 1013.6 |
| 20260904031150 | 81 | 16 | 0.0 | 0.0 | 0.00 | 0.00 | 0.00 | 74 | 1013.6 |
| 20260904030645 | 81 | 247 | 0.0 | 0.0 | 0.00 | 0.00 | 0.00 | 74 | 1013.8 |
| 20260904030141 | 82 | 229 | 0.0 | 0.0 | 0.00 | 0.00 | 0.00 | 73 | 1013.3 |
| 20260904025636 | 82 | 269 | 0.0 | 0.0 | 0.00 | 0.00 | 0.00 | 74 | 1013.6 |
| 20260904025131 | 82 | 130 | 0.0 | 0.0 | 0.00 | 0.00 | 0.00 | 74 | 1013.6 |
| 20260904024626 | 82 | 162 | 0.0 | 0.0 | 0.00 | 0.00 | 0.00 | 73 | 1013.1 |
| 20260904024122 | 82 | 211 | 0.0 | 0.0 | 0.00 | 0.00 | 0.00 | 71 | 1013.5 |
| 20260904023618 | 82 | 206 | 0.0 | 0.0 | 0.00 | 0.00 | 0.00 | 68 | 1013.4 |
| 20260904023114 | 82 | 199 | 0.0 | 0.0 | 0.00 | 0.00 | 0.00 | 67 | 1013.2 |
| 20260904022614 | 83 | 206 | 0.0 | 0.0 | 0.00 | 0.00 | 0.00 | 66 | 1013.3 |
| 20260904022111 | 83 | 116 | 0.0 | 0.0 | 0.00 | 0.00 | 0.00 | 67 | 1013.4 |
| 20260904021606 | 83 | 338 | 0.0 | 0.0 | 0.00 | 0.00 | 0.00 | 67 | 1013.1 |
| 20260904021101 | 84 | 15 | 0.0 | 0.0 | 0.00 | 0.00 | 0.00 | 66 | 1013.2 |
| 20260904020556 | 84 | 54 | 0.0 | 0.0 | 0.00 | 0.00 | 0.00 | 70 | 1013.0 |
| 20260904020051 | 84 | 168 | 0.0 | 0.0 | 0.00 | 0.00 | 0.00 | 70 | 1012.8 |
| 20260904015545 | 84 | 166 | 0.0 | 0.0 | 0.00 | 0.00 | 0.00 | 68 | 1012.8 |
| 20260904015044 | 85 | 165 | 0.0 | 0.0 | 0.00 | 0.00 | 0.00 | 68 | 1012.9 |
| 20260904014538 | 85 | 177 | 0.0 | 0.0 | 0.00 | 0.00 | 0.00 | 64 | 1012.7 |
| 20260904014034 | 85 | 210 | 0.0 | 0.0 | 0.00 | 0.00 | 0.00 | 61 | 1012.6 |
| 20260904013530 | 85 | 192 | 0.0 | 0.0 | 0.00 | 0.00 | 0.00 | 61 | 1012.7 |
| 20260904013027 | 86 | 234 | 0.0 | 0.0 | 0.00 | 0.00 | 0.00 | 59 | 1012.8 |
| 20260904012526 | 87 | 196 | 0.0 | 0.0 | 0.00 | 0.00 | 0.00 | 61 | 1012.6 |
| 20260904012020 | 86 | 215 | 0.0 | 0.0 | 0.00 | 0.00 | 0.00 | 58 | 1012.6 |
| 20260904011514 | 88 | 189 | 0.0 | 0.0 | 0.00 | 0.00 | 0.00 | 57 | 1012.3 |
| 20260904011009 | 88 | 202 | 0.0 | 0.0 | 0.00 | 0.00 | 0.00 | 57 | 1012.6 |
| 20260904010506 | 88 | 287 | 0.0 | 0.0 | 0.00 | 0.00 | 0.00 | 56 | 1012.4 |
| 20260904010001 | 89 | 272 | 0.0 | 0.0 | 0.00 | 0.00 | 0.00 | 55 | 1012.4 |
| 20260904005456 | 89 | 352 | 0.0 | 0.0 | 0.00 | 0.00 | 0.00 | 54 | 1012.5 |
| 20260904004951 | 89 | 347 | 0.0 | 0.0 | 0.00 | 0.00 | 0.00 | 53 | 1012.5 |
| 20260904004447 | 89 | 18 | 0.0 | 0.0 | 0.00 | 0.00 | 0.00 | 53 | 1012.5 |
| 20260904003942 | 90 | 243 | 0.0 | 0.0 | 0.00 | 0.00 | 0.00 | 52 | 1012.4 |
| 20260904003438 | 91 | 330 | 1.0 | 1.0 | 0.00 | 0.00 | 0.00 | 52 | 1012.3 |
| 20260904002932 | 91 | 285 | 1.0 | 1.0 | 0.00 | 0.00 | 0.00 | 51 | 1012.3 |
| 20260904002429 | 92 | 338 | 1.0 | 1.0 | 0.00 | 0.00 | 0.00 | 50 | 1012.4 |
| 20260904001928 | 93 | 344 | 1.0 | 1.0 | 0.00 | 0.00 | 0.00 | 49 | 1012.2 |
| 20260904001423 | 94 | 277 | 1.0 | 1.0 | 0.00 | 0.00 | 0.00 | 48 | 1012.4 |
| 20260904000918 | 95 | 155 | 0.0 | 0.0 | 0.00 | 0.00 | 0.00 | 47 | 1012.2 |
| 20260904000418 | 95 | 214 | 0.0 | 0.0 | 0.00 | 0.00 | 0.00 | 47 | 1012.1 |
| 20260903235912 | 96 | 135 | 0.0 | 1.0 | 0.00 | 0.00 | 0.00 | 44 | 1012.3 |
| 20260903235409 | 96 | 152 | 1.0 | 2.0 | 0.00 | 0.00 | 0.00 | 43 | 1012.2 |
| 20260903234908 | 96 | 116 | 1.0 | 1.0 | 0.00 | 0.00 | 0.00 | 41 | 1012.4 |
| 20260903234404 | 97 | 110 | 1.0 | 2.0 | 0.00 | 0.00 | 0.00 | 43 | 1012.2 |
| 20260903233900 | 97 | 137 | 3.0 | 3.0 | 0.00 | 0.00 | 0.00 | 41 | 1012.2 |
| 20260903233356 | 97 | 128 | 3.0 | 3.0 | 0.00 | 0.00 | 0.00 | 39 | 1012.1 |
| 20260903232856 | 97 | 101 | 3.0 | 3.0 | 0.00 | 0.00 | 0.00 | 41 | 1012.1 |
| 20260903232351 | 97 | 75 | 1.0 | 2.0 | 0.00 | 0.00 | 0.00 | 39 | 1012.1 |
| 20260903231850 | 97 | 142 | 3.0 | 3.0 | 0.00 | 0.00 | 0.00 | 43 | 1012.0 |
| 20260903231345 | 97 | 116 | 3.0 | 3.0 | 0.00 | 0.00 | 0.00 | 40 | 1012.1 |
| 20260903230840 | 98 | 96 | 2.0 | 3.0 | 0.00 | 0.00 | 0.00 | 41 | 1012.1 |
| 20260903230335 | 98 | 104 | 5.0 | 6.0 | 0.00 | 0.00 | 0.00 | 42 | 1012.1 |
| 20260903225832 | 98 | 110 | 3.0 | 3.0 | 0.00 | 0.00 | 0.00 | 40 | 1012.0 |
| 20260903225322 | 98 | 129 | 3.0 | 3.0 | 0.00 | 0.00 | 0.00 | 39 | 1011.9 |
| 20260903224819 | 99 | 104 | 3.0 | 3.0 | 0.00 | 0.00 | 0.00 | 38 | 1012.1 |
| 20260903224314 | 99 | 127 | 3.0 | 3.0 | 0.00 | 0.00 | 0.00 | 37 | 1011.9 |
| 20260903223810 | 99 | 156 | 3.0 | 3.0 | 0.00 | 0.00 | 0.00 | 38 | 1011.9 |
| 20260903223309 | 98 | 112 | 2.0 | 2.0 | 0.00 | 0.00 | 0.00 | 41 | 1011.8 |
| 20260903222803 | 99 | 147 | 1.0 | 2.0 | 0.00 | 0.00 | 0.00 | 40 | 1011.7 |
| 20260903222305 | 99 | 81 | 3.0 | 3.0 | 0.00 | 0.00 | 0.00 | 40 | 1011.9 |
| 20260903221757 | 100 | 121 | 5.0 | 7.0 | 0.00 | 0.00 | 0.00 | 39 | 1012.0 |
| 20260903221256 | 100 | 108 | 1.0 | 1.0 | 0.00 | 0.00 | 0.00 | 39 | 1012.0 |
| 20260903220754 | 101 | 131 | 3.0 | 5.0 | 0.00 | 0.00 | 0.00 | 39 | 1012.0 |
| 20260903220249 | 100 | 90 | 2.0 | 3.0 | 0.00 | 0.00 | 0.00 | 39 | 1011.9 |
| 20260903215742 | 100 | 152 | 7.0 | 8.0 | 0.00 | 0.00 | 0.00 | 37 | 1011.9 |
| 20260903215238 | 99 | 120 | 3.0 | 3.0 | 0.00 | 0.00 | 0.00 | 36 | 1012.0 |
| 20260903214736 | 99 | 114 | 4.0 | 6.0 | 0.00 | 0.00 | 0.00 | 38 | 1012.2 |
| 20260903214232 | 99 | 125 | 3.0 | 5.0 | 0.00 | 0.00 | 0.00 | 36 | 1012.2 |
| 20260903213726 | 101 | 138 | 6.0 | 6.0 | 0.00 | 0.00 | 0.00 | 36 | 1012.2 |